GEESAT-3 06 (61016 NORAD) Tracking and Keplerian Element Data

This shows tracking and keplerian element data for the satellite.

Feedback or suggestion? Click here.




ElementValue
Catalog61016
NameGEESAT-3 06
Epoch Orbit551
Epoch Day286.82446303
Epoch Year2024
RAAN65.4405
Inclination49.999
Eccentricity0.001239
Argument of Perigee4.2655
Mean Anonmoly355.839
Mean Motion14.92358859
Decay Rate0.00013001
L11 61016U 24159F 24286.82446303 .00013001 00000+0 12765-2 0 9994
L22 61016 49.9990 65.4405 0012390 4.2655 355.8390 14.92358859 5515



Live tracking and technical data element details for GEESAT-3 06 (NORAD 61016). GEESAT-3 06 can be tracked NOW for your location showing map with azimuth and elevation plus other details from your city location.







IsCatalogInMostPopularTable: catalog: 61016, numindb: 6
Update: records affected: 1



GetName: 61016 GEESAT-3 06

Hit Count: updated at: Wed, 04 Dec 2024 19:40:30 GMT